Regional Weather Roundup
Issued by NWS State College, PA

Home | Current Version | Previous Version | Graphics & Text | Print | Product List | Glossary On
Versions: 1 2 3 4 5 6 7 8 9 10 11 12 13 14 15 16 17 18 19 20 21 22 23 24 25 26 27 28 29 30 31 32 33 34 35 36 37 38 39 40 41 42 43 44 45 46 47 48 49 50
000
ASUS41 KCTP 301603
RWRCTP

REGIONAL WEATHER ROUNDUP
NATIONAL WEATHER SERVICE STATE COLLEGE PA
1200 PM EDT SUN AUG 30 2015

Note: "fair" indicates few or no clouds below 12,000 feet with no
significant weather and/or obstructions to visibility.

* = STATION THAT DOES NOT REPORT PRECIPITATION /E.G. RAIN...SNOW...ETC/
    THUNDER OR FOG.

PAZ002>004-007>009-013>016-020>023-029>032-301700-
WESTERN PENNSYLVANIA

CITY           SKY/WX    TMP DP  RH WIND       PRES   REMARKS
ERIE           PTSUNNY   75  62  64 SW6       30.11S
MEADVILLE      PTSUNNY   72  65  78 W7        30.15S
FRANKLIN*      PTSUNNY   73  66  78 W8        30.17F
NEW CASTLE     PTSUNNY   76  70  82 SW3       30.15S
BEAVER COUNTY  NOT AVBL
BUTLER*        MOSUNNY   77  68  73 S7        30.16F
PITTSBURGH INT PTSUNNY   76  66  71 VRB5      30.14F
PITTSBURGH     MOSUNNY   76  61  59 S10       30.15S
INDIANA*       MOSUNNY   77  64  65 SW6G13    30.18F
LATROBE        PTSUNNY   77  66  69 SW9       30.16F
WASHINGTON CO* MOSUNNY   79  66  65 S3        30.16S
$$

PAZ004>006-010>012-017>019-024>028-033>037-041-042-045-046-049>053-301700-
CENTRAL PENNSYLVANIA

CITY           SKY/WX    TMP DP  RH WIND       PRES   REMARKS
BRADFORD       MOSUNNY   75  62  64 W10       30.16S
DUBOIS         PTSUNNY   76  63  64 W13       30.16R
CLEARFIELD     MOSUNNY   77  63  61 VRB5      30.16S
JOHNSTOWN      PTSUNNY   75  62  64 W8        30.19F
ALTOONA        MOSUNNY   81  63  54 VRB5      30.16F
STATE COLLEGE  PTSUNNY   77  66  69 CALM      30.14F
WILLIAMSPORT   MOSUNNY   77  61  57 W7        30.10F
SELINSGROVE    PTSUNNY   80  67  64 CALM      30.11F
FT INDIANTOWN  MOSUNNY   81  68  64 S2        30.11F
CAPITAL CITY   MOSUNNY   82  65  56 W5        30.11F
HARRISBURG     PTSUNNY   82  68  62 CALM      30.10F
YORK           SUNNY     81  69  67 CALM      30.12F
$$

PAZ038>040-043-044-047-048-054-055-060>062-067>071-301700-
EASTERN PENNSYLVANIA

CITY           SKY/WX    TMP DP  RH WIND       PRES   REMARKS
SCRANTON       PTSUNNY   79  64  60 SW7       30.12S
MOUNT POCONO   SUNNY     78  62  57 W13       30.16S
ALLENTOWN      SUNNY     82  67  60 VRB3      30.11F
QUAKERTOWN*    SUNNY     82  66  57 SW5       30.13F
READING        SUNNY     83  67  58 VRB3      30.10F
LANCASTER      SUNNY     82  65  56 W5        30.12F
COATESVILLE    SUNNY     81  68  65 W6        30.14F
POTTSTOWN      SUNNY     82  68  62 VRB5      30.13F
BLUE BELL      SUNNY     84  68  58 SW5       30.11F
DOYLESTOWN     MOSUNNY   80  66  62 SW5       30.12F
WILLOW GROVE   NOT AVBL
NORTH PHILA    SUNNY     85  64  49 SW7       30.12F
PHILADELPHIA   MOSUNNY   84  64  50 W12       30.11F
$$



USA.gov is the U.S. government's official web portal to all federal, state and local government web resources and services.